Fort Wayne, IN

6:05 PM EDT on May 26, 2017 (GMT -0400)
Fort Wayne International

Weather History for KFWA - February, 2013

Change the Weather History Date:

Friday, February 1, 2013

  Actual Average Record
Temperature  
Mean Temperature 10 °F 25 °F  
Max Temperature 14 °F 33 °F 57 °F (1968)
Min Temperature 5 °F 18 °F -8 °F (1936)
Degree Days  
Heating Degree Days 55 40  
Month to date heating degree days 55 40  
Since 1 July heating degree days 3402 3611  
Cooling Degree Days 0 0  
Month to date cooling degree days 0 0  
Year to date cooling degree days 0 0  
Moisture  
Dew Point 3 °F    
Average Humidity 74    
Maximum Humidity 83    
Minimum Humidity 64    
Precipitation  
Precipitation T in 0.07 in 1.14 in (2014)
Month to date precipitation T 0.07  
Year to date precipitation 3.43 2.33  
Snow  
Snow T in 0.30 in 9.00 in (2015)
Month to date snowfall T 0.3  
Since 1 July snowfall 12.2 21.0  
Snow Depth T in    
Sea Level Pressure  
Sea Level Pressure 30.29 in    
Wind  
Wind Speed 17 mph (WSW)    
Max Wind Speed 28 mph    
Max Gust Speed 35 mph    
Visibility 10 miles    
Events Snow    
T = Trace of Precipitation, MM = Missing Value Source: NWS Daily Summary

Daily Weather History Graph

Daily Weather History Graph

Search for Another Location

Airport or City:

Trip Planner

Search our weather history database for the weather conditions in past years. The results will help you decide how hot, cold, wet, or windy it might be!

Date:

Astronomy

Feb. 01, 2013 Rise Set
Actual Time 7:51 AM EST 5:58 PM EST
Civil Twilight 7:22 AM EST 6:27 PM EST
Nautical Twilight 6:49 AM EST 7:00 PM EST
Astronomical Twilight 6:16 AM EST 7:32 PM EST
Moon No Moon Rise 10:20 AM EST (2/1)
Length of Visible Light 11h 05m
Length of Day
10h 07m
Waning Gibbous, 70% of the Moon is Illuminated
Feb 1
Waning Gibbous
Feb 3
Last Quarter
Feb 10
New
Feb 17
First Quarter
Feb 25
Full

Hourly Weather History & Observations

Time (EST) Temp. Windchill Dew Point Humidity Pressure Visibility Wind Dir Wind Speed Gust Speed Precip Events Conditions
12:54 AM 10.9 °F -8.3 °F 5.0 °F 77% 30.08 in 10.0 mi West 21.9 mph 28.8 mph 0.00 in Snow Light Snow
1:54 AM 9.0 °F -11.8 °F 3.0 °F 77% 30.10 in 10.0 mi West 24.2 mph 32.2 mph 0.00 in   Scattered Clouds
2:54 AM 8.1 °F -12.6 °F 1.9 °F 76% 30.14 in 10.0 mi West 23.0 mph 29.9 mph N/A   Scattered Clouds
3:54 AM 7.0 °F -14.9 °F 1.9 °F 80% 30.17 in 10.0 mi West 25.3 mph 31.1 mph N/A   Partly Cloudy
4:54 AM 7.0 °F -14.5 °F 1.0 °F 77% 30.20 in 10.0 mi West 24.2 mph 29.9 mph N/A   Partly Cloudy
5:54 AM 6.1 °F -15.7 °F -0.0 °F 76% 30.23 in 10.0 mi West 24.2 mph 32.2 mph N/A   Partly Cloudy
6:54 AM 6.1 °F -14.3 °F -0.9 °F 73% 30.26 in 10.0 mi West 20.7 mph - N/A   Partly Cloudy
7:54 AM 5.0 °F -16.2 °F -0.9 °F 76% 30.30 in 10.0 mi West 21.9 mph 27.6 mph N/A   Partly Cloudy
8:54 AM 6.1 °F -13.3 °F -0.9 °F 73% 30.33 in 10.0 mi West 18.4 mph - N/A   Partly Cloudy
9:54 AM 8.1 °F -10.2 °F 1.0 °F 73% 30.35 in 10.0 mi WSW 17.3 mph 25.3 mph N/A   Partly Cloudy
10:54 AM 10.0 °F -7.6 °F 1.9 °F 70% 30.37 in 10.0 mi West 17.3 mph - N/A   Partly Cloudy
11:54 AM 10.0 °F -7.6 °F 1.9 °F 70% 30.39 in 10.0 mi WSW 17.3 mph - N/A   Scattered Clouds
12:44 PM 10.4 °F -7.2 °F 1.4 °F 67% 30.34 in 10.0 mi West 17.3 mph - N/A   Mostly Cloudy
12:54 PM 10.9 °F -4.7 °F 1.9 °F 67% 30.39 in 10.0 mi WSW 13.8 mph - N/A   Mostly Cloudy
1:54 PM 10.9 °F -5.4 °F 3.0 °F 70% 30.38 in 10.0 mi West 15.0 mph - N/A   Overcast
2:54 PM 10.9 °F -5.4 °F 3.0 °F 70% 30.36 in 10.0 mi West 15.0 mph - 0.00 in Snow Light Snow
3:54 PM 12.0 °F -3.4 °F 3.9 °F 70% 30.36 in 10.0 mi WSW 13.8 mph - 0.00 in   Mostly Cloudy
4:54 PM 14.0 °F -2.5 °F 3.9 °F 64% 30.35 in 10.0 mi SW 17.3 mph 23.0 mph N/A   Mostly Cloudy
5:49 PM 12.2 °F -4.8 °F 3.2 °F 67% 30.30 in 10.0 mi WSW 17.3 mph - N/A   Mostly Cloudy
5:54 PM 12.9 °F -2.8 °F 3.9 °F 67% 30.35 in 10.0 mi WSW 15.0 mph - N/A   Mostly Cloudy
6:54 PM 14.0 °F -0.2 °F 5.0 °F 67% 30.35 in 9.0 mi SW 12.7 mph 20.7 mph 0.00 in   Overcast
7:54 PM 14.0 °F -0.2 °F 5.0 °F 67% 30.35 in 10.0 mi SW 12.7 mph - N/A   Mostly Cloudy
8:54 PM 12.9 °F -0.2 °F 6.1 °F 74% 30.34 in 10.0 mi SW 10.4 mph - N/A   Partly Cloudy
9:54 PM 12.9 °F -0.9 °F 7.0 °F 77% 30.32 in 10.0 mi SSW 11.5 mph - N/A   Scattered Clouds
10:54 PM 14.0 °F 0.5 °F 7.0 °F 74% 30.31 in 10.0 mi SSW 11.5 mph - N/A   Scattered Clouds
11:54 PM 12.9 °F -0.9 °F 8.1 °F 81% 30.30 in 10.0 mi SSW 11.5 mph - N/A   Partly Cloudy